TimeCST,TemperatureF,Dew PointF,Humidity,Sea Level PressureIn,VisibilityMPH,Wind Direction,Wind SpeedMPH,Gust SpeedMPH,PrecipitationIn,Events,Conditions,WindDirDegrees,DateUTC
12:56 AM,42.1,37.9,85,30.28,10.0,North,3.5,-,N/A,,Clear,350,2012-11-19 06:56:00
1:56 AM,41.0,37.9,89,30.28,10.0,North,3.5,-,N/A,,Clear,360,2012-11-19 07:56:00
2:56 AM,41.0,37.0,86,30.27,10.0,North,3.5,-,N/A,,Clear,10,2012-11-19 08:56:00
3:56 AM,39.9,37.0,89,30.26,10.0,Calm,Calm,-,N/A,,Clear,0,2012-11-19 09:56:00
4:56 AM,39.0,36.0,89,30.27,10.0,North,3.5,-,N/A,,Clear,350,2012-11-19 10:56:00
5:56 AM,39.0,35.1,86,30.27,10.0,North,3.5,-,N/A,,Clear,360,2012-11-19 11:56:00
6:56 AM,39.9,36.0,86,30.28,10.0,North,3.5,-,N/A,,Clear,350,2012-11-19 12:56:00
7:56 AM,51.1,44.1,77,30.28,10.0,Calm,Calm,-,N/A,,Clear,0,2012-11-19 13:56:00
8:56 AM,55.9,45.0,67,30.29,10.0,ENE,4.6,-,N/A,,Clear,60,2012-11-19 14:56:00
9:56 AM,60.1,46.0,60,30.28,10.0,Variable,3.5,-,N/A,,Clear,0,2012-11-19 15:56:00
10:56 AM,63.0,46.9,56,30.27,10.0,NNW,3.5,-,N/A,,Clear,330,2012-11-19 16:56:00
11:56 AM,64.9,46.0,50,30.24,10.0,Variable,4.6,-,N/A,,Clear,0,2012-11-19 17:56:00
12:56 PM,66.9,44.1,44,30.22,10.0,WNW,6.9,-,N/A,,Clear,300,2012-11-19 18:56:00
1:56 PM,66.9,45.0,45,30.21,10.0,North,8.1,-,N/A,,Clear,10,2012-11-19 19:56:00
2:56 PM,66.0,44.1,45,30.20,10.0,North,8.1,-,N/A,,Clear,360,2012-11-19 20:56:00
3:56 PM,64.0,44.1,48,30.19,10.0,NNW,3.5,-,N/A,,Clear,330,2012-11-19 21:56:00
4:56 PM,59.0,45.0,60,30.17,10.0,Calm,Calm,-,N/A,,Clear,0,2012-11-19 22:56:00
5:56 PM,52.0,46.0,80,30.19,10.0,Calm,Calm,-,N/A,,Clear,0,2012-11-19 23:56:00
6:56 PM,50.0,45.0,83,30.19,10.0,Calm,Calm,-,N/A,,Clear,0,2012-11-20 00:56:00
7:56 PM,48.0,44.1,86,30.20,10.0,Calm,Calm,-,N/A,,Clear,0,2012-11-20 01:56:00
8:56 PM,46.0,43.0,89,30.20,10.0,North,3.5,-,N/A,,Clear,350,2012-11-20 02:56:00
9:56 PM,46.0,42.1,86,30.19,10.0,North,3.5,-,N/A,,Clear,350,2012-11-20 03:56:00
10:56 PM,44.1,41.0,89,30.17,10.0,Calm,Calm,-,N/A,,Clear,0,2012-11-20 04:56:00
11:56 PM,43.0,41.0,93,30.17,10.0,North,3.5,-,N/A,,Partly Cloudy,360,2012-11-20 05:56:00